カタログに戻る

TITAN 3C TRANSTAGE DEB

LostMEO
NORAD 38699·DEBRIS·🇺🇸 United States

打ち上げ Sep 26, 1968 から Cape Canaveral Space Force Station

Loading…

次のパス (今後24時間)

TLE

古いSource: Space-Track

元期: Jun 14, 2026, 22:08 UTC

1 38699U 68081Z   26165.92244606 -.00000376  00000-0  00000-0 0  9998
2 38699   1.9348  43.3976 0183223 244.9345  45.6298  1.00874929 51835

AllMySatでTITAN 3C TRANSTAGE DEBをリアルタイム追跡

Download on the App Store